Regional Weather Roundup
Issued by NWS

Home | Current Version | Previous Version | Graphics & Text | Print | Product List | Glossary On
Versions: 1 2 3 4 5 6 7 8 9 10 11 12 13 14 15 16 17 18 19 20 21 22 23 24 25 26 27 28 29 30 31 32 33 34 35 36 37 38 39 40 41 42 43 44 45 46 47 48 49 50
000
ASUS43 KOAX 141702
RWRNE

WEATHER ROUNDUP FOR NEBRASKA
NATIONAL WEATHER SERVICE OMAHA NE
1200 PM CDT SUN SEP 14 2014

NOTES: SATELLITE DATA IS BEING USED TO AUGMENT CLOUD COVER ABOVE
       12000 FEET.
       "FAIR" INDICATES FEW OR NO CLOUDS BELOW 12,000 FEET WITH NO
       SIGNIFICANT WEATHER AND/OR OBSTRUCTIONS TO VISIBILITY.

  * THESE STATIONS DO NOT REPORT WEATHER SUCH AS RAIN...SNOW OR FOG.

NEZ001>004-019>022-054>056-141800-
NEBRASKA PANHANDLE

CITY           SKY/WX    TMP DP  RH WIND       PRES   REMARKS
SCOTTSBLUFF    CLOUDY    50  47  89 E6        30.10F
ALLIANCE       CLOUDY    53  48  83 S7        30.09F
CHADRON        CLOUDY    51  41  68 E12       30.12F
KIMBALL        MOSUNNY   65  47  52 S3        30.08F
SIDNEY         CLOUDY    53  51  93 CALM      30.11S
$$

NEZ057>060-069>072-079>082-141800-
SOUTHWEST NEBRASKA

CITY           SKY/WX    TMP DP  RH WIND       PRES   REMARKS
NORTH PLATTE   SUNNY     59  48  67 SE8       30.13F
IMPERIAL       SUNNY     62  51  67 E7        30.11F
LEXINGTON      SUNNY     61  52  72 NE5       30.15S
MCCOOK         SUNNY     62  50  64 E9        30.12F
OGALLALA       SUNNY     61  51  71 SE8       30.10F
$$

NEZ005>010-023>029-035>040-094-141800-
NORTH CENTRAL NEBRASKA

CITY           SKY/WX    TMP DP  RH WIND       PRES   REMARKS
VALENTINE      SUNNY     59  39  47 E12       30.13F
AINSWORTH      SUNNY     57  42  57 E15       30.15F
BROKEN BOW     MOSUNNY   63  47  55 SE10      30.14F
O`NEILL        PTSUNNY   56  45  66 E9        30.18F
ORD            MOSUNNY   60  47  61 E6        30.15F
THEDFORD       SUNNY     62  48  59 SE13      30.14S
$$

NEZ041-046>049-061>064-073>077-083>087-141800-
SOUTH CENTRAL NEBRASKA

CITY           SKY/WX    TMP DP  RH WIND       PRES   REMARKS
GRAND ISLAND   SUNNY     66  50  56 SE8       30.17F
AURORA         SUNNY     65  50  57 S7        30.17F
HASTINGS       SUNNY     65  50  58 S8        30.16F
HEBRON         SUNNY     68  49  51 SE7       30.17F
HOLDREGE       SUNNY     63  50  64 S7        30.14F
KEARNEY *      SUNNY     63  52  67 SE7       30.16F
YORK           SUNNY     64  52  63 S6        30.18F
$$

NEZ011>018-030>034-042>045-141800-
NORTHEAST NEBRASKA

CITY           SKY/WX    TMP DP  RH WIND       PRES   REMARKS
NORFOLK        PTSUNNY   59  46  62 CALM      30.18S
ALBION         MOSUNNY   57  46  65 CALM      30.18S
BLAIR          SUNNY     65  50  56 SW8       30.20S
COLUMBUS *     MOSUNNY   63  46  55 SE5       30.20F
FREMONT        MOSUNNY   64  48  54 CALM      30.20F
TEKAMAH        MOSUNNY   63  49  60 S5        30.20F
WAYNE          PTSUNNY   60  49  68 W5        30.20R
$$

NEZ050>053-065>068-078-088>093-141800-
SOUTHEAST NEBRASKA

CITY           SKY/WX    TMP DP  RH WIND       PRES   REMARKS
LINCOLN        SUNNY     67  50  54 S8        30.20F
OMAHA EPPLEY   MOSUNNY   65  49  56 S6        30.21F
BEATRICE       SUNNY     67  49  53 SW9       30.19F
FALLS CITY     SUNNY     69  50  50 SW8       30.21F
NEBRASKA CITY  SUNNY     66  41  39 S8        30.21F
PLATTSMOUTH    SUNNY     66  46  49 S6        30.21S
$$

NEZ044-045-051>053-067-141800-
OMAHA AREA

CITY           SKY/WX    TMP DP  RH WIND       PRES   REMARKS
OMAHA EPPLEY   MOSUNNY   65  49  56 S6        30.21F
BLAIR          SUNNY     65  50  56 SW8       30.20S
FREMONT        MOSUNNY   64  48  54 CALM      30.20F
OFFUTT AFB     SUNNY     66  54  64 S7        30.20F
PLATTSMOUTH    SUNNY     66  46  49 S6        30.21S
WAHOO          FAIR      66  48  51 S7        30.19F
$$


USA.gov is the U.S. government's official web portal to all federal, state and local government web resources and services.